Weather History for Chickasha, OK

Change the Weather History Date:

Wednesday, September 18, 2013

  Actual Average Record
Temperature  
Mean Temperature 82 °F -  
Max Temperature 95 °F 84 °F 99 °F (1956)
Min Temperature 68 °F 60 °F 39 °F (1981)
Cooling Degree Days 16    
Growing Degree Days 32 (Base 50)    
Moisture  
Dew Point 66 °F    
Average Humidity 67    
Maximum Humidity 100    
Minimum Humidity 34    
Precipitation  
Precipitation 0.00 in - - ()
Sea Level Pressure  
Sea Level Pressure 29.95 in    
Wind  
Wind Speed 7 mph (South)    
Max Wind Speed 18 mph    
Max Gust Speed 26 mph    
Visibility 10 miles    
Events      
Averages and records for this station are not official NWS values.
T = Trace of Precipitation, MM = Missing Value Source: NWS Daily Summary

Daily Weather History Graph

Daily Weather History Graph

Search for Another Location

Airport:

Trip Planner

Search our weather history database for the weather conditions in past years. The results will help you decide how hot, cold, wet, or windy it might be!

Date:

Astronomy

Sep. 18, 2013 Rise Set
Actual Time 7:17 AM CDT 7:34 PM CDT
Civil Twilight 6:51 AM CDT 7:59 PM CDT
Nautical Twilight 6:22 AM CDT 8:28 PM CDT
Astronomical Twilight 5:51 AM CDT 8:59 PM CDT
Moon 6:58 PM CDT (9/18) 6:21 AM CDT (9/18)
Length of Visible Light 13h 07m
Length of Day
12h 16m
Waxing Gibbous, 99% of the Moon is Illuminated
Sep 18
Waxing Gibbous
Sep 19
Full
Sep 26
Last Quarter
Oct 4
New
Oct 11
First Quarter

Hourly Weather History & Observations

Time (CDT) Temp. Heat Index Dew Point Humidity Pressure Visibility Wind Dir Wind Speed Gust Speed Precip Events Conditions
12:15 AM 71.6 °F - 68.0 °F 88% 30.01 in 10.0 mi SE 4.6 mph - N/A   Clear
12:35 AM 71.6 °F - 68.0 °F 88% 30.00 in 10.0 mi SSE 5.8 mph - N/A   Clear
12:55 AM 71.6 °F - 68.0 °F 88% 30.00 in 10.0 mi SE 5.8 mph - N/A   Clear
1:15 AM 73.4 °F - 68.0 °F 83% 30.00 in 10.0 mi SE 5.8 mph - N/A   Clear
1:35 AM 71.6 °F - 68.0 °F 88% 30.00 in 10.0 mi ESE 5.8 mph - N/A   Clear
1:55 AM 71.6 °F - 68.0 °F 88% 29.99 in 10.0 mi SE 5.8 mph - N/A   Clear
2:15 AM 71.6 °F - 68.0 °F 88% 29.98 in 10.0 mi SE 4.6 mph - N/A   Clear
2:35 AM 69.8 °F - 68.0 °F 94% 29.98 in 10.0 mi SE 3.5 mph - N/A   Clear
2:55 AM 69.8 °F - 68.0 °F 94% 29.98 in 10.0 mi ESE 3.5 mph - N/A   Clear
3:15 AM 68.0 °F - 68.0 °F 100% 29.98 in 10.0 mi Calm Calm - N/A   Clear
3:35 AM 69.8 °F - 68.0 °F 94% 29.98 in 10.0 mi SE 5.8 mph - N/A   Clear
3:55 AM 69.8 °F - 68.0 °F 94% 29.97 in 10.0 mi Calm Calm - N/A   Clear
4:15 AM 69.8 °F - 68.0 °F 94% 29.97 in 10.0 mi Calm Calm - N/A   Clear
4:35 AM 68.0 °F - 68.0 °F 100% 29.97 in 10.0 mi Calm Calm - N/A   Clear
4:55 AM 68.0 °F - 68.0 °F 100% 29.96 in 10.0 mi SE 3.5 mph - N/A   Clear
5:15 AM 68.0 °F - 68.0 °F 100% 29.96 in 10.0 mi SE 3.5 mph - N/A   Clear
5:35 AM 68.0 °F - 68.0 °F 100% 29.95 in 10.0 mi ESE 4.6 mph - N/A   Clear
5:55 AM 68.0 °F - 68.0 °F 100% 29.95 in 10.0 mi SE 5.8 mph - N/A   Scattered Clouds
6:15 AM 68.0 °F - 68.0 °F 100% 29.96 in 10.0 mi SE 4.6 mph - N/A   Clear
6:35 AM 68.0 °F - 68.0 °F 100% 29.96 in 10.0 mi SE 4.6 mph - N/A   Clear
6:55 AM 68.0 °F - 68.0 °F 100% 29.97 in 10.0 mi SE 4.6 mph - N/A   Clear
7:15 AM 68.0 °F - 68.0 °F 100% 29.97 in 10.0 mi SSE 4.6 mph - N/A   Clear
7:35 AM 69.8 °F - 68.0 °F 94% 29.98 in 10.0 mi SSE 4.6 mph - N/A   Clear
7:55 AM 71.6 °F - 68.0 °F 88% 29.98 in 10.0 mi SSE 5.8 mph - N/A   Clear
8:15 AM 71.6 °F - 68.0 °F 88% 29.98 in 10.0 mi SSE 5.8 mph - N/A   Clear
8:35 AM 73.4 °F - 69.8 °F 88% 29.99 in 10.0 mi SSE 5.8 mph - N/A   Clear
8:55 AM 73.4 °F - 68.0 °F 83% 29.99 in 10.0 mi South 4.6 mph - N/A   Clear
9:15 AM 75.2 °F - 69.8 °F 83% 30.00 in 10.0 mi South 4.6 mph - N/A   Clear
9:35 AM 77.0 °F - 69.8 °F 78% 30.00 in 10.0 mi South 6.9 mph - N/A   Clear
9:55 AM 78.8 °F - 69.8 °F 74% 30.00 in 10.0 mi South 6.9 mph - N/A   Clear
10:15 AM 78.8 °F - 69.8 °F 74% 30.01 in 10.0 mi South 8.1 mph - N/A   Clear
10:35 AM 80.6 °F 83.9 °F 69.8 °F 70% 30.01 in 10.0 mi SSW 11.5 mph - N/A   Clear
10:55 AM 80.6 °F 83.9 °F 69.8 °F 70% 30.01 in 10.0 mi SSW 11.5 mph - N/A   Clear
11:15 AM 82.4 °F 86.3 °F 69.8 °F 66% 30.00 in 10.0 mi SSW 10.4 mph - N/A   Clear
11:35 AM 82.4 °F 86.3 °F 69.8 °F 66% 30.00 in - SW 10.4 mph - N/A   Clear
11:55 AM 89.6 °F 96.2 °F 71.6 °F 55% 30.00 in - SSW 12.7 mph 17.3 mph N/A   Clear
12:15 PM 89.6 °F 96.2 °F 71.6 °F 55% 30.00 in - SSW 12.7 mph 17.3 mph N/A   Clear
12:35 PM 89.6 °F 94.7 °F 69.8 °F 52% 29.99 in - SW 12.7 mph - N/A   Clear
12:55 PM 89.6 °F 93.4 °F 68.0 °F 49% 29.98 in - SW 11.5 mph 21.9 mph N/A   Clear
1:15 PM 89.6 °F 93.4 °F 68.0 °F 49% 29.97 in - SSW 17.3 mph 23.0 mph N/A   Clear
1:35 PM 89.6 °F 93.4 °F 68.0 °F 49% 29.97 in - SSW 15.0 mph 19.6 mph N/A   Clear
1:55 PM 89.6 °F 91.1 °F 64.4 °F 43% 29.95 in - SSW 18.4 mph 24.2 mph N/A   Clear
2:15 PM 91.4 °F 93.2 °F 64.4 °F 41% 29.94 in - SSW 12.7 mph 20.7 mph N/A   Clear
2:35 PM 93.2 °F 94.9 °F 64.4 °F 38% 29.93 in - SSW 18.4 mph 26.5 mph N/A   Clear
2:55 PM 95.0 °F 97.0 °F 64.4 °F 36% 29.93 in - SSW 16.1 mph 24.2 mph N/A   Clear
3:15 PM 95.0 °F 97.0 °F 64.4 °F 36% 29.92 in - SSW 11.5 mph 19.6 mph N/A   Clear
3:35 PM 95.0 °F 97.0 °F 64.4 °F 36% 29.92 in - South 13.8 mph 19.6 mph N/A   Clear
3:55 PM 95.0 °F 97.0 °F 64.4 °F 36% 29.91 in - SW 16.1 mph 23.0 mph N/A   Clear
4:15 PM 95.0 °F 97.0 °F 64.4 °F 36% 29.90 in - South 12.7 mph - N/A   Clear
4:35 PM 95.0 °F 96.0 °F 62.6 °F 34% 29.90 in - South 15.0 mph 20.7 mph N/A   Scattered Clouds
4:55 PM 95.0 °F 96.0 °F 62.6 °F 34% 29.89 in - SSW 13.8 mph 21.9 mph N/A   Clear
5:15 PM 95.0 °F 97.0 °F 64.4 °F 36% 29.89 in - SSW 12.7 mph 19.6 mph N/A   Clear
5:35 PM 91.4 °F 92.1 °F 62.6 °F 38% 29.89 in - SSW 10.4 mph 19.6 mph N/A   Clear
5:55 PM 91.4 °F 92.1 °F 62.6 °F 38% 29.88 in - South 10.4 mph - N/A   Clear
6:15 PM 91.4 °F 92.1 °F 62.6 °F 38% 29.88 in - South 13.8 mph 18.4 mph N/A   Clear
6:35 PM 89.6 °F 89.5 °F 60.8 °F 38% 29.88 in - South 11.5 mph 16.1 mph N/A   Clear
6:55 PM 89.6 °F 89.5 °F 60.8 °F 38% 29.88 in - South 9.2 mph - N/A   Clear
7:15 PM 89.6 °F 90.1 °F 62.6 °F 40% 29.88 in - South 6.9 mph - N/A   Clear
7:35 PM 84.2 °F 84.4 °F 60.8 °F 45% 29.88 in - South 6.9 mph - N/A   Clear
7:55 PM 82.4 °F 82.9 °F 60.8 °F 48% 29.89 in - South 8.1 mph - N/A   Clear
8:15 PM 80.6 °F 81.5 °F 60.8 °F 51% 29.89 in - SSE 5.8 mph - N/A   Clear
8:35 PM 80.6 °F 81.8 °F 62.6 °F 54% 29.89 in - SSE 5.8 mph - N/A   Clear
8:55 PM 80.6 °F 81.8 °F 62.6 °F 54% 29.90 in - SSE 5.8 mph - N/A   Scattered Clouds
9:15 PM 80.6 °F 81.8 °F 62.6 °F 54% 29.91 in - SSE 5.8 mph - N/A   Scattered Clouds
9:35 PM 80.6 °F 81.8 °F 62.6 °F 54% 29.91 in - SSE 8.1 mph - N/A   Clear
9:55 PM 80.6 °F 82.3 °F 64.4 °F 58% 29.92 in - SSE 8.1 mph - N/A   Clear
10:15 PM 80.6 °F 82.3 °F 64.4 °F 58% 29.92 in - SSE 8.1 mph - N/A   Clear
10:35 PM 78.8 °F - 64.4 °F 61% 29.92 in - SSE 4.6 mph - N/A   Clear
10:55 PM 78.8 °F - 64.4 °F 61% 29.92 in - SSE 9.2 mph - N/A   Clear
11:15 PM 78.8 °F - 64.4 °F 61% 29.92 in - SSE 9.2 mph - N/A   Clear
11:35 PM 78.8 °F - 64.4 °F 61% 29.92 in - South 9.2 mph - N/A   Clear
11:55 PM 77.0 °F - 62.6 °F 61% 29.92 in - South 9.2 mph - N/A   Clear